SL-16 DEB, 22343

Orbit data source: Space-Track

SL-16 DEB, 22343 is space debris in LEO originally from a launch on Fri, 25 Dec 1992 UTC launched from the Tyuratam Missile And Space Complex (TTMTR). Debris objects in space refer to the collection of defunct objects orbiting the Earth. Examples of debris include non-operational satellites, rocket bodies, and fragments generated from explosions, collisions, or faulty payload assembly.

Loading next visibility...
Identifier
22343, 1992-093AG
Orbit
LEO
Country
Flag of CISCIS
Related business
Manufacturer
Unknown
Mission
Spacecraft
Bus & Motor
Unknown
Mass
Unknown
Launch date (UTC)
1992-12-25 (33 years ago)
Launch vehicle
Unknown
Launch site
Tyuratam Missile And Space Complex (TTMTR)
Object type
Payload
Rocket body
Debris
Shape & HBR
Unknown shape, 0.4 m
Radar Cross Section
Medium (>0.1 m² and <1 m²)

Expand to show TLE details & history
Last TLE update: 21 hours ago

TLE from 21 hours ago
0 SL-16 DEB
1 22343U 92093AG  25348.90174899  .00000691  00000-0  38870-3 0  9991
2 22343  70.9519 142.4992 0091899 102.4840  58.5406 14.11803418690197
Epoch: 2025-12-14T21:38Z
TLE epoch observation values (Epoch: 2025-12-14T21:38:31.112Z)
Latitude
17.0477°
Longitude
-91.98357°
Altitude
820.746 km
Speed
7.462 km/s
True Right ascension
21h 05m 48s
True Declination
16° 57' 09"
Sunlit
Object was in daylight at epoch
Visualization orbit readout
Latitude
Unknown
Longitude
Unknown
Altitude
Unknown
Speed
Unknown
Apparent Right ascension
Unknown
Apparent Declination
Unknown
Sunlit
N/A
Visualization observer readout
Local Sidereal Time
17:22:55
Azimuth
Unknown
Elevation
Unknown
Doppler factor
Unknown
Orbital elements
Apogee altitude
917.576 km
Perigee altitude
784.703 km
Semi-major axis
7,229.276 km
Eccentricity
0.00919
Inclination
70.9519°
RAAN
142.4992°
Arg. of periapsis
102.484°
True anomaly
59.44427°
Mean anomaly
58.5406°
Eccentric anomaly
58.9919°
Mean motion
3.53103 °/min
Orbital period
101.95 mins
BSTAR
0.0003887
Loading maneuver chart data...
Computing Atmospheric mass density...
Loading historical data...
Loading historical data...
Loading historical data...
Loading historical data...
Loading historical data...
Loading historical data...
Loading historical data...

Documentation

Showing up to 5 results
|